Location: Newark
(39.4242°N, 80.8531°W)
Time: 04:22:16
(UTC+00:00)

ITUPSAT 1 - Visible Passes

Search period start: 02 April 2020 00:00
Search period end: 12 April 2020 00:00
Orbit: 701 x 713 km, 98.6° (Epoch: 31 March)

Date Brightness Start Highest point End Pass type
(mag) Time Alt. Az. Time Alt. Az. Time Alt. Az.
02 Apr ? 09:08:05 10° E 09:10:37 15° ENE 09:13:12 10° NNE visible
03 Apr ? 00:22:42 10° NNW 00:26:31 24° WNW 00:30:19 10° WSW visible
03 Apr ? 09:50:07 10° SE 09:54:29 37° ENE 09:58:51 10° N visible
04 Apr ? 08:59:49 10° E 09:01:28 12° ENE 09:03:08 10° NE visible
04 Apr ? 10:33:51 10° S 10:38:36 77° WSW 10:43:23 10° NNW visible
05 Apr ? 00:13:11 10° N 00:17:19 29° WNW 00:21:27 10° SW visible
05 Apr ? 09:41:08 10° SE 09:45:15 30° ENE 09:49:23 10° N visible
06 Apr ? 00:59:34 10° NW 01:01:05 11° WNW 01:02:37 10° W visible
06 Apr ? 10:24:34 10° SSE 10:29:18 85° ENE 10:34:06 10° NNW visible
07 Apr ? 09:32:13 10° ESE 09:36:03 25° ENE 09:39:53 10° NNE visible
08 Apr ? 00:49:26 10° NNW 00:51:56 14° WNW 00:54:26 10° W visible
08 Apr ? 10:15:20 10° SSE 10:20:02 67° ENE 10:24:47 10° N visible
09 Apr ? 09:23:25 10° ESE 09:26:50 20° ENE 09:30:17 10° NNE visible
10 Apr ? 00:39:38 10° NNW 00:42:46 18° WNW 00:45:53 10° WSW visible
10 Apr ? 10:06:10 10° SSE 10:10:46 53° ENE 10:15:26 10° N visible
11 Apr ? 09:14:44 10° ESE 09:17:40 16° ENE 09:20:35 10° NNE visible
